Location: Sabana Grande
(18.0777°N, 66.9605°W)
Time: 09:45:51
(UTC-04:00)

ACS3 Solar Sail - Visible Passes

Search period start: 20 September 2024 00:00
Search period end: 30 September 2024 00:00
Orbit: 970 x 1036 km, 97.4° (Epoch: 19 September)

Date Brightness Start Highest point End Pass type
(mag) Time Alt. Az. Time Alt. Az. Time Alt. Az.
20 Sep 3.6 20:04:18 17° NE 20:04:18 17° NE 20:06:05 10° NNE visible
20 Sep 4.4 21:49:33 14° NW 21:49:33 14° NW 21:50:27 10° NW visible
21 Sep 3.5 20:37:39 22° N 20:37:39 22° N 20:39:51 10° N visible
22 Sep 3.8 21:10:56 21° NNW 21:10:56 21° NNW 21:12:47 10° NNW visible
23 Sep 3.7 19:58:55 15° NNE 19:58:55 15° NNE 20:00:19 10° NNE visible
23 Sep 4.4 21:44:09 13° NW 21:44:09 13° NW 21:44:55 10° NNW visible
24 Sep 3.6 20:32:07 20° N 20:32:07 20° N 20:34:02 10° N visible
25 Sep 3.8 21:05:14 19° NNW 21:05:14 19° NNW 21:06:52 10° NNW visible
26 Sep 3.8 19:53:06 13° NNE 19:53:06 13° NNE 19:54:04 10° NNE visible
26 Sep 4.4 21:38:19 13° NW 21:38:19 13° NW 21:38:56 10° NNW visible
27 Sep 3.6 20:26:08 18° NNE 20:26:08 18° NNE 20:27:45 10° N visible
28 Sep 3.9 20:59:07 18° NNW 20:59:07 18° NNW 21:00:31 10° NNW visible
29 Sep 3.9 19:46:51 11° NNE 19:46:51 11° NNE 19:47:18 10° NNE visible
29 Sep 4.4 21:32:03 12° NNW 21:32:03 12° NNW 21:32:31 10° NNW visible
